Flag for United Kingdom Weather past 2 weeks in Gloucester, England, United Kingdom

Now
55 °F

Fog.


Feels Like: 55 °F
Forecast: 55 / 70 °F
Wind: No wind

Location: Staverton Private

Current Time: Sep 30, 2014 at 7:41:29 AM

Latest Report: Sep 30, 2014 at 6:50 AM


Visibility: 3 mi

Pressure: 30.18 "Hg

Humidity: 100%

Dew point: 55 °F

Location of GloucesterLocation

Historic Weather in Gloucester — Graph

°F

Gloucester temperature yesterday

Maximum temperature yesterday: 66 °F (at 11:50 AM)
Minimum temperature yesterday: 54 °F (at 6:50 AM)
Average temperature yesterday: 62 °F

Past Weeks' High & Low Weather Summary

 TemperatureHumidityPressure
High75 °F (Sep 18, 3:20 PM)100% (Sep 15, 7:20 AM)30.33 "Hg (Sep 15, 7:20 AM)
Low41 °F (Sep 22, 6:50 AM)49% (Sep 22, 2:50 PM)29.77 "Hg (Sep 18, 4:20 PM)
Average63 °F78%30.07 "Hg
* Reported Sep 14 7:20 PM — Sep 29 6:50 PM, Gloucester, Weather by CustomWeather, © 2014

Note: Actual official high and low records may vary slightly from our data, if they occured in-between our weather recording intervals... More about our weather records

Advertising

Gloucester weather history for previous 24 hours

 ConditionsComfort  
Time TempWeatherWind HumidityBarometerVisibility
6:50 PM
Sep 29
63 °FScattered clouds.3 mph88%30.09 "Hg5 mi
6:20 PM63 °FScattered clouds.3 mph88%30.09 "Hg5 mi
5:50 PM64 °FScattered clouds.3 mph83%30.09 "Hg5 mi
5:20 PM64 °FBroken clouds.5 mph83%30.09 "Hg5 mi
4:50 PM64 °FBroken clouds.6 mph83%30.09 "Hg4 mi
4:20 PM64 °FBroken clouds.6 mph83%30.09 "Hg4 mi
3:50 PM64 °FBroken clouds.5 mph88%30.09 "Hg4 mi
3:20 PM64 °FBroken clouds.7 mph88%30.09 "Hg4 mi
2:50 PM66 °FBroken clouds.6 mph83%30.09 "Hg4 mi
2:20 PM64 °FPartly sunny.5 mph88%30.09 "Hg4 mi
1:50 PM66 °FPartly sunny.6 mph83%30.09 "Hg4 mi
1:20 PM66 °FScattered clouds.3 mph83%30.09 "Hg4 mi
12:50 PM66 °FPassing clouds.2 mph83%30.09 "Hg4 mi
12:20 PM66 °FPassing clouds.No wind78%30.09 "Hg4 mi
11:50 AM66 °FPassing clouds.No wind78%30.09 "Hg4 mi
11:20 AM63 °FPassing clouds.No wind88%30.09 "Hg5 mi
10:50 AM61 °FPassing clouds.No wind88%30.12 "Hg5 mi
10:20 AM61 °FPassing clouds.No wind88%30.12 "Hg5 mi
9:50 AM59 °FPassing clouds.No wind94%30.12 "Hg6 mi
9:20 AM57 °FPassing clouds.No wind94%30.12 "Hg6 mi
8:50 AM57 °FPassing clouds.No wind94%30.09 "Hg6 mi
8:20 AM55 °FScattered clouds.No wind100%30.09 "Hg4 mi
7:50 AM54 °FPassing clouds.No wind100%30.09 "Hg4 mi
7:20 AM54 °FPassing clouds.No wind94%30.09 "Hg4 mi
Weather by CustomWeather, © 2014

See weather overviewHow to use our weather pages